Location: Rounton
(54.4000°N, 1.3500°W)
Time: 13:02:34
(UTC+00:00)

Transit 4A - Pass Details

Date: 30 November 2021
Orbit: 864 x 981 km, 66.8° (Epoch: 18 January)

Event Time Altitude Azimuth Distance (km) Brightness Sun altitude
Rises 23:03:23 0° 266° (W) 3,498 - -56.0°
Reaches altitude 10° 23:06:08 10° 276° (W) 2,577 - -56.2°
Maximum altitude 23:11:27 32° 339° (NNW) 1,526 - -56.4°
Drops below altitude 10° 23:16:56 10° 42° (NE) 2,656 - -56.6°
Sets 23:19:49 0° 52° (NE) 3,622 - -56.8°
